Regional Weather Roundup
Issued by NWS

Home | Current Version | Previous Version | Text Only | Print | Product List | Glossary On
Versions: 1 2 3 4 5 6 7 8 9 10 11 12 13 14 15 16 17 18 19 20 21 22 23 24 25 26 27 28 29 30 31 32 33 34 35 36 37 38 39 40 41 42 43 44 45 46 47 48 49 50
000
ASUS42 KFFC 241910
RWRGA
WEATHER ROUNDUP FOR GEORGIA
NATIONAL WEATHER SERVICE PEACHTREE CITY GA
200 PM EST FRI NOV 24 2017

NOTE: "FAIR" INDICATES FEW OR NO CLOUDS BELOW 12,000 FEET WITH NO
SIGNIFICANT WEATHER AND/OR OBSTRUCTIONS TO VISIBILITY.

* = USE WITH CAUTION. THE STATIONS MARKED WITH AN ASTERISK MAY NOT
REPORT WEATHER SUCH AS PRECIPITATION, FOG, OR THUNDER AND ARE NOT
QUALITY CONTROLLED BY NWS.

THE REMARK "TC" DENOTES TEMPERATURE READING IN DEGREES CELSIUS.

GAZ001>058-242000-
NORTH GEORGIA

CITY           SKY/WX    TMP DP  RH WIND       PRES   REMARKS
ATLANTA        SUNNY     60  43  53 CALM      29.96F
ATHENS         SUNNY     61  38  42 CALM      29.97F
CHAMBLEE       SUNNY     60  38  43 VRB3      29.96F
PEACHTREE CITY SUNNY     63  43  48 VRB5      29.97F
ROME           SUNNY     61  42  49 CALM      29.95F
WEST ATLANTA   SUNNY     62  44  51 CALM      29.96F
GAINESVILLE    SUNNY     59  37  44 CALM      29.97F
CARTERSVILLE   SUNNY     63  43  48 VRB5      29.97F


CITY           SKY/WX    TMP DP  RH WIND       PRES   REMARKS
DALTON*        SUNNY     59  41  51 SW3       29.97F
LAWRENCEVILLE* SUNNY     60  38  43 CALM      29.98F
MARIETTA       SUNNY     62  40  45 CALM      29.95F
KENNESAW*      SUNNY     62  40  44 VRB3      29.97
CANTON*        SUNNY     63  37  39 SW5       29.97F
$$

GAZ059>098-102>109-242000-
CENTRAL GEORGIA

CITY           SKY/WX    TMP DP  RH WIND       PRES   REMARKS
AUGUSTA-BUSH   SUNNY     63  35  35 VRB3      29.96F
AUGUSTA-DANIEL SUNNY     63  36  36 CALM      29.97F
COLUMBUS       SUNNY     65  43  44 VRB3      29.96F
MACON          SUNNY     65  35  33 VRB5      29.96F
ROBINS AFB     SUNNY     65  37  36 NE6       29.95F


CITY           SKY/WX    TMP DP  RH WIND       PRES   REMARKS
LAGRANGE*      SUNNY     64  44  49 NE3       29.96F
SYLVANIA*      SUNNY     64  38  38 NE8       29.96S
MILLEDGEVILLE* SUNNY     63  37  39 CALM      29.97F
$$

GAZ099>101-110>166-242000-
SOUTH GEORGIA

CITY           SKY/WX    TMP DP  RH WIND       PRES   REMARKS
SAVANNAH       MOSUNNY   65  39  38 N8        29.93F
VALDOSTA       SUNNY     67  43  41 VRB5      29.94F
ALMA           SUNNY     67  39  35 CALM      29.93F
ST SIMONS      MOSUNNY   64  42  44 N12       29.91F
FT STEWART     SUNNY     65  38  35 NE10      29.91F
ALBANY         SUNNY     67  41  38 NW3       29.93F
HUNTER AFB     SUNNY     65  38  37 NW5       29.90F
MOODY AFB      SUNNY     66  40  38 NW8       29.93F
BRUNSWICK      MOSUNNY   63  37  39 N6        29.93S


CITY           SKY/WX    TMP DP  RH WIND       PRES   REMARKS
BAINBRIDGE*    SUNNY     70  50  49 N3        29.95F
MOULTRIE*      SUNNY     66  37  34 NW3       29.95F
VIDALIA*       SUNNY     66  37  34 NE3       29.95F
WAYCROSS*      SUNNY     65  35  33 N6        29.93F
DOUGLAS*       SUNNY     64  37  36 N6        29.95F
$$




USA.gov is the U.S. government's official web portal to all federal, state and local government web resources and services.